{"data":{"norad_id":69819,"intl_designator":"2026-154A","name":"STARLINK-37520","alt_names":[],"object_type":"PAYLOAD","status":"ACTIVE","operator":null,"country":"US","launch_date":"2026-07-05","launch_site_code":"AFETR","launch_vehicle":null,"mission":null,"orbit_class":"UNKNOWN","rcs_meters":null,"size_class":null,"mass_kg":null,"dimensions":null,"purposes":["comms"],"wikipedia_slug":null,"has_3d_model":false,"image_url":null,"decayed_at":null,"tle_current":{"epoch":"2026-09-19T21:28:52.231008Z","epoch_age_seconds":70104,"freshness":"FRESH","line1":"1 69819U 26154A   26262.89504897  .00012434  00000+0  37853-3 0  9991","line2":"2 69819  53.1550 334.6584 0001339  79.5837 280.5316 15.34399955 13149","mean_motion":15.34399955,"eccentricity":0.0001339,"inclination_deg":53.155,"raan_deg":334.6584,"arg_perigee_deg":79.5837,"mean_anomaly_deg":280.5316,"bstar":0.00037853,"rev_number":1314,"period_min":93.847760833648,"perigee_km":461.78738543052,"apogee_km":463.61936248266,"semimajor_km":6840.8403739566,"source":"CELESTRAK","updated_at":"2026-09-20T09:00:44.291065Z"}}}